Laupheim, Germany

7:54 AM CEST on June 20, 2018 (GMT +0200)
Laupheim Army

Weather History for ETHL - June, 2018

Change the Weather History Date:

Thursday, June 14, 2018

  Actual Average Record
Temperature  
Mean Temperature 58 °F -  
Max Temperature 65 °F - - ()
Min Temperature 50 °F - - ()
Degree Days  
Heating Degree Days 8    
Growing Degree Days 8 (Base 50)    
Moisture  
Dew Point 46 °F    
Average Humidity 65    
Maximum Humidity 94    
Minimum Humidity 35    
Precipitation  
Precipitation 0.00 in - - ()
Sea Level Pressure  
Sea Level Pressure 30.03 in    
Wind  
Wind Speed 3 mph ()    
Max Wind Speed 7 mph    
Max Gust Speed -    
Visibility 10.4 miles    
Events      
T = Trace of Precipitation, MM = Missing Value Source: Averaged Metar Reports

Daily Weather History Graph

Daily Weather History Graph

Search for Another Location

Airport or City:

Astronomy

Jun. 14, 2018 Rise Set
Actual Time 5:19 AM CEST 9:22 PM CEST
Civil Twilight 4:37 AM CEST 10:03 PM CEST
Nautical Twilight 3:39 AM CEST 11:01 PM CEST
Astronomical Twilight 1:59 AM CEST 12:43 AM CEST
Moon 6:06 AM CEST (6/14) 10:00 PM CEST (6/14)
Length of Visible Light 17h 25m
Length of Day
16h 02m
New Moon, 1% of the Moon is Illuminated
Jun 14
New Moon
Jun 20
First Quarter
Jun 28
Full
Jul 6
Last Quarter
Jul 13
New

Hourly Weather History & Observations

Time (CEST) Temp. Dew Point Humidity Pressure Visibility Wind Dir Wind Speed Gust Speed Precip Events Conditions
12:00 AM 54 °F 47 °F 71% 30.05 in 22 mi NW 2.2 mph - -   Overcast
12:20 AM 53.6 °F 48.2 °F 82% 30.04 in 6.2 mi NW 1.2 mph - N/A   Mostly Cloudy
1:00 AM 53 °F 47 °F 74% 30.05 in 19 mi Calm Calm - -   Overcast
1:20 AM 53.6 °F 48.2 °F 82% 30.04 in 6.2 mi North 1.2 mph - N/A   Mostly Cloudy
2:20 AM 53.6 °F 46.4 °F 77% 30.04 in 6.2 mi North 1.2 mph - N/A   Mostly Cloudy
3:20 AM 53.6 °F 48.2 °F 82% 30.04 in 6.2 mi ENE 1.2 mph - N/A   Mostly Cloudy
4:00 AM 53 °F 48 °F 76% 30.04 in 19 mi East 2.2 mph - -   Overcast
4:20 AM 51.8 °F 48.2 °F 88% 30.04 in 6.2 mi East 5.8 mph - N/A   Mostly Cloudy
5:20 AM 51.8 °F 48.2 °F 88% 30.04 in 6.2 mi ESE 2.3 mph - N/A   Mostly Cloudy
6:00 AM 51 °F 48 °F 87% 30.04 in 17 mi NW 2.2 mph - -   Mostly Cloudy
6:20 AM 50.0 °F 48.2 °F 94% 30.01 in 6.2 mi NW 1.2 mph - N/A   Mostly Cloudy
7:00 AM 53 °F 48 °F 76% 30.04 in 19 mi Calm Calm - -   Mostly Cloudy
7:20 AM 53.6 °F 48.2 °F 82% 30.04 in 6.2 mi NE 3.5 mph - N/A   Mostly Cloudy
8:20 AM 55.4 °F 48.2 °F 77% 30.04 in 6.2 mi ENE 5.8 mph - N/A   Scattered Clouds
9:00 AM 56 °F 48 °F 66% 30.03 in 17 mi East 6.7 mph - -   Partly Cloudy
9:20 AM 59.0 °F 46.4 °F 63% 30.04 in 6.2 mi East 4.6 mph - N/A   Scattered Clouds
10:00 AM 58 °F 45 °F 52% 30.03 in 19 mi NE 6.7 mph - -   Mostly Cloudy
10:20 AM 57.2 °F 42.8 °F 59% 30.04 in 6.2 mi NE 3.5 mph - N/A   Mostly Cloudy
11:20 AM 57.2 °F 42.8 °F 59% 30.04 in 6.2 mi NNE 3.5 mph - N/A   Mostly Cloudy
12:20 PM 59.0 °F 42.8 °F 55% 30.04 in 6.2 mi ENE 2.3 mph - N/A   Mostly Cloudy
1:00 PM 59 °F 44 °F 46% 30.02 in 19 mi NNE 2.2 mph - -   Mostly Cloudy
1:20 PM 60.8 °F 42.8 °F 52% 30.04 in 6.2 mi NNE 3.5 mph - N/A   Mostly Cloudy
2:20 PM 60.8 °F 44.6 °F 55% 30.04 in 6.2 mi NE 4.6 mph - N/A   Mostly Cloudy
3:00 PM 62 °F 46 °F 46% 29.99 in 19 mi ENE 4.5 mph - -   Mostly Cloudy
3:20 PM 62.6 °F 44.6 °F 52% 30.01 in 6.2 mi East 4.6 mph - N/A   Scattered Clouds
4:20 PM 64.4 °F 44.6 °F 49% 30.01 in 6.2 mi West 4.6 mph - N/A   Scattered Clouds
5:00 PM 62.6 °F 44.6 °F 52% 30.01 in 6.2 mi NE 5.8 mph - N/A   Scattered Clouds
5:20 PM 64.4 °F 44.6 °F 49% 30.01 in 6.2 mi ENE 4.6 mph - N/A   Scattered Clouds
6:00 PM 65 °F 46 °F 39% 29.96 in 19 mi East 4.5 mph - -   Partly Cloudy
6:20 PM 64.4 °F 44.6 °F 49% 30.01 in 6.2 mi Variable 3.5 mph - N/A   Scattered Clouds
7:00 PM 65 °F 44 °F 35% 29.96 in 19 mi East 2.2 mph - -   Scattered Clouds
8:20 PM 62.6 °F 42.8 °F 48% 30.01 in 6.2 mi NE 2.3 mph - N/A   Partly Cloudy
9:00 PM 60 °F 46 °F 50% 29.99 in 19 mi NNE 2.2 mph - -   Scattered Clouds
9:20 PM 59.0 °F 46.4 °F 63% 30.01 in 6.2 mi North 2.3 mph - N/A   Partly Cloudy
10:00 PM 57 °F 46 °F 57% 30.02 in 19 mi East 2.2 mph - -   Scattered Clouds
10:20 PM 53.6 °F 46.4 °F 77% 30.04 in 6.2 mi East 4.6 mph - N/A   Scattered Clouds
11:20 PM 53.6 °F 48.2 °F 82% 30.06 in 6.2 mi NW 3.5 mph - N/A   Mostly Cloudy